Alamosa, CO

7:13 PM MST on February 11, 2016 (GMT -0700)
San Luis Valley Regional / Bergman Field

Weather History for KALS - July, 2013

Change the Weather History Date:

Saturday, July 6, 2013

  Actual Average Record
Temperature  
Mean Temperature 64 °F 64 °F  
Max Temperature 82 °F 83 °F 94 °F (1989)
Min Temperature 45 °F 46 °F 33 °F (1938)
Degree Days  
Heating Degree Days 1 2  
Month to date heating degree days 8 12  
Since 1 June heating degree days 110 180  
Since 1 July heating degree days 8 12  
Cooling Degree Days 0 1  
Month to date cooling degree days 2 6  
Year to date cooling degree days 18 12  
Since 1 June cooling degree days 18 12  
Growing Degree Days 14 (Base 50)    
Moisture  
Dew Point 47 °F    
Average Humidity 60    
Maximum Humidity 93    
Minimum Humidity 26    
Precipitation  
Precipitation T in 0.03 in 0.56 in (2006)
Month to date precipitation 0.14 0.15  
Year to date precipitation 1.75 2.86  
Snow  
Snow 0.00 in 0.00 in 0.00 in (2002)
Month to date snowfall 0.0 0.0  
Since 1 June snowfall 0.0 0.0  
Since 1 July snowfall 0.0 0.0  
Snow Depth 0.00 in    
Sea Level Pressure  
Sea Level Pressure 29.93 in    
Wind  
Wind Speed 7 mph (WNW)    
Max Wind Speed 20 mph    
Max Gust Speed 25 mph    
Visibility 10 miles    
Events Rain    
T = Trace of Precipitation, MM = Missing Value Source: NWS Daily Summary

Daily Weather History Graph

Daily Weather History Graph

Search for Another Location

Airport or City:

Trip Planner

Search our weather history database for the weather conditions in past years. The results will help you decide how hot, cold, wet, or windy it might be!

Date:

Astronomy

Jul. 06, 2013 Rise Set
Actual Time 5:48 AM MDT 8:27 PM MDT
Civil Twilight 5:18 AM MDT 8:58 PM MDT
Nautical Twilight 4:39 AM MDT 9:36 PM MDT
Astronomical Twilight 3:57 AM MDT 10:19 PM MDT
Moon 4:36 AM MDT (7/6) 7:12 PM MDT (7/6)
Length of Visible Light 15h 39m
Length of Day
14h 38m
Waning Crescent, 2% of the Moon is Illuminated
Jul 6
Waning Crescent
Jul 8
New
Jul 15
First Quarter
Jul 22
Full
Jul 29
Last Quarter

Hourly Weather History & Observations

Time (MDT) Temp. Dew Point Humidity Pressure Visibility Wind Dir Wind Speed Gust Speed Precip Events Conditions
12:52 AM 52.0 °F 48.9 °F 89% 29.89 in 10.0 mi SE 3.5 mph - N/A   Clear
1:52 AM 50.0 °F 46.9 °F 89% 29.90 in 10.0 mi West 5.8 mph - N/A   Clear
2:52 AM 48.9 °F 46.9 °F 93% 29.91 in 10.0 mi ESE 3.5 mph - N/A   Clear
3:52 AM 48.9 °F 46.9 °F 93% 29.96 in 10.0 mi Calm Calm - N/A   Clear
4:52 AM 48.0 °F 46.0 °F 93% 30.00 in 10.0 mi North 3.5 mph - N/A   Mostly Cloudy
5:52 AM 46.9 °F 45.0 °F 93% 30.01 in 10.0 mi Calm Calm - N/A   Clear
6:52 AM 48.9 °F 46.9 °F 93% 30.01 in 10.0 mi West 4.6 mph - N/A   Clear
7:52 AM 57.0 °F 50.0 °F 77% 29.99 in 10.0 mi Calm Calm - N/A   Clear
8:52 AM 62.1 °F 50.0 °F 65% 29.98 in 10.0 mi Calm Calm - N/A   Clear
9:52 AM 66.9 °F 50.0 °F 54% 29.97 in 10.0 mi Calm Calm - N/A   Clear
10:52 AM 73.9 °F 46.9 °F 38% 29.94 in 10.0 mi North 5.8 mph - N/A   Clear
11:52 AM 77.0 °F 45.0 °F 32% 29.92 in 10.0 mi NNW 10.4 mph 16.1 mph N/A   Clear
12:52 PM 80.1 °F 43.0 °F 27% 29.90 in 10.0 mi NW 12.7 mph 21.9 mph N/A   Clear
1:52 PM 80.1 °F 43.0 °F 27% 29.89 in 10.0 mi NNW 9.2 mph - N/A   Clear
2:52 PM 78.1 °F 43.0 °F 29% 29.89 in 10.0 mi WNW 8.1 mph - N/A   Scattered Clouds
3:52 PM 78.1 °F 46.9 °F 33% 29.87 in 10.0 mi West 10.4 mph - N/A   Scattered Clouds
4:52 PM 81.0 °F 46.9 °F 30% 29.85 in 10.0 mi West 16.1 mph 20.7 mph N/A   Mostly Cloudy
5:52 PM 75.9 °F 43.0 °F 31% 29.86 in 10.0 mi West 8.1 mph - N/A   Clear
6:52 PM 73.9 °F 46.0 °F 37% 29.88 in 10.0 mi South 6.9 mph - N/A   Partly Cloudy
7:52 PM 70.0 °F 48.9 °F 47% 29.89 in 10.0 mi SE 10.4 mph - N/A   Partly Cloudy
8:52 PM 66.9 °F 48.0 °F 51% 29.91 in 10.0 mi ESE 12.7 mph - N/A   Partly Cloudy
9:52 PM 64.0 °F 50.0 °F 60% 29.93 in 10.0 mi ESE 11.5 mph - 0.00 in Rain Light Rain
10:52 PM 64.0 °F 50.0 °F 60% 29.92 in 10.0 mi SE 5.8 mph - 0.00 in   Partly Cloudy
11:52 PM 62.1 °F 50.0 °F 65% 29.94 in 10.0 mi NE 11.5 mph - N/A   Mostly Cloudy